Regional Weather Roundup
Issued by NWS

Home | Current Version | Previous Version | Graphics & Text | Print | Product List | Glossary On
Versions: 1 2 3 4 5 6 7 8 9 10 11 12 13 14 15 16 17 18 19 20 21 22 23 24 25 26 27 28 29 30 31 32 33 34 35 36 37 38 39 40 41 42 43 44 45 46 47 48 49 50
000
ASUS43 KMPX 101701
RWRMN
WEATHER ROUNDUP FOR MINNESOTA
NATIONAL WEATHER SERVICE TWIN CITIES/CHANHASSEN MN
1100 AM CST SUN DEC 10 2017


NOTE: "FAIR" INDICATES FEW OR NO CLOUDS BELOW 12,000 FEET WITH NO
SIGNIFICANT WEATHER AND/OR OBSTRUCTIONS TO VISIBILITY. N/A MEANS
CURRENT SKY AND/OR WEATHER CONDITIONS ARE NOT AVAILABLE.

MNZ060>063-068>070-101800-
   Twin Cities Metro

CITY           SKY/WX    TMP DP  RH WIND       PRES   REMARKS
TWIN CITIES    CLOUDY    28  22  78 N14       30.01R WCI  17
ST PAUL        CLOUDY    28  22  78 NW10      30.02R WCI  19
CRYSTAL        CLOUDY    27  19  72 NW12      29.99R WCI  17
BLAINE         CLOUDY    28  23  80 NW9       29.99R WCI  20
LAKEVILLE      CLOUDY    27  23  86 NW10      29.98R WCI  17
EDEN PRAIRIE   CLOUDY    29  21  72 NW10      29.99R WCI  20
SOUTH ST PAUL  CLOUDY    29  22  74 N10       30.00R WCI  20
LAKE ELMO      CLOUDY    28  23  80 NW9       30.00R WCI  20
$$
MNZ001>005-007-008-013>017-022>024-027-028-101800-
   Northwest Minnesota

CITY           SKY/WX    TMP DP  RH WIND       PRES   REMARKS
BEMIDJI        CLOUDY    19  16  86 NW7       30.00R WCI  10
HALLOCK        CLOUDY    21  18  86 CALM      30.04S
ROSEAU         CLOUDY    19  16  86 CALM      30.02S
WARROAD        CLOUDY    18  14  86 CALM      30.01F
CROOKSTON      CLOUDY    21  18  86 N7        30.06S WCI  13
FOSSTON        CLOUDY    19  16  86 N6        30.02R WCI  11
DETROIT LAKES  CLOUDY    23  21  93 N7        30.02R WCI  15
MOORHEAD       CLOUDY    23  18  80 CALM      30.08R
PARK RAPIDS    CLOUDY    23  17  78 NW6       29.98R WCI  16
MAHNOMEN       CLOUDY    21  18  87 N7        30.02R WCI  13
$$
MNZ006-009>011-018-025>026-101800-
   North Central Minnesota

CITY           SKY/WX    TMP DP  RH WIND       PRES   REMARKS
BAUDETTE       FLURRIES  17  12  80 CALM      30.00S
FLAG ISLAND    CLOUDY    16  12  86 CALM      30.00S
INTL FALLS     CLOUDY    16  10  77 NW6       29.98F WCI   7
WASKISH        LGT SNOW  18  16  93 N3        30.00S
BIG FORK       LGT SNOW  19  16  86 N3        29.98F
GRAND RAPIDS   CLOUDY    19  15  84 N13       30.00R WCI   6
ORR            FLURRIES  16   9  73 NW7       29.95S WCI   6
COOK           FLURRIES  16  10  79 NW5       29.98S WCI   9
WALKER         CLOUDY    21  17  82 NW7       29.99R WCI  13
$$
MNZ012-019>021-037-101800-
   Northeast Minnesota

CITY           SKY/WX    TMP DP  RH WIND       PRES   REMARKS
DULUTH         FLURRIES  18  12  77 N7G17     29.95R WCI   9
ELY            FLURRIES  14   7  73 N7        29.94S WCI   4
HIBBING        CLOUDY    16  11  80 N9        29.97R WCI   4
EVELETH        FLURRIES  15   8  75 N6        29.97R WCI   6
DULUTH HARBOR  CLOUDY    23  16  74 NW10      30.01R WCI  12
TWO HARBORS    PTSUNNY   21  12  68 NW7       29.95R WCI  13
G MARAIS ARPRT CLOUDY    10   1  67 NW6       29.88S WCI   1
$$
MNZ029>031-032-039>041-046>048-054>057-064-101800-
   West Central Minnesota

CITY           SKY/WX    TMP DP  RH WIND       PRES   REMARKS
FERGUS FALLS   SUNNY     25  19  80 NW10      30.07R WCI  15
MORRIS         SUNNY     28  21  74 NW13G18   30.03R WCI  18
ALEXANDRIA     CLOUDY    25  20  81 NW8       30.00R WCI  16
ELBOW LAKE     FAIR      24  20  83 W13       30.03R WCI  12
WADENA         CLOUDY    23  18  80 N7        30.00R WCI  15
GLENWOOD       CLOUDY    25  21  86 W9        30.01R WCI  15
BENSON         SUNNY     28  21  74 N9        30.05R WCI  20
ORTONVILLE     SUNNY     30  21  69 NW7       30.05S WCI  23
MADISON        SUNNY     34  27  75 N10       30.05S WCI  26
WILLMAR        PTSUNNY   28  23  80 NW12      30.04R WCI  18
$$
MNZ033>034-036-042>043-049>051-058-059-101800-
   Central Minnesota

CITY           SKY/WX    TMP DP  RH WIND       PRES   REMARKS
ST CLOUD       CLOUDY    27  20  75 N9        29.98S WCI  18
SAUK CENTRE    PTSUNNY   25  19  79 NW7       30.01R WCI  17
PAYNESVILLE    CLOUDY    27  23  82 NW9       30.01R WCI  18
AITKIN         CLOUDY    21  16  79 NW9       29.97R WCI  11
PINE RIVER     CLOUDY    21  16  79 N7        30.02R WCI  13
BRAINERD       CLOUDY    25  16  68 N10       29.98S WCI  15
STAPLES        MOSUNNY   25  18  74 N9        29.99R WCI  15
LONG PRAIRIE   CLOUDY    25  19  80 W7        29.99R WCI  17
LITTLE FALLS   PTSUNNY   27  14  59 NW3       29.99S
LITCHFIELD     CLOUDY    28  23  80 NW8       30.00R WCI  20
BUFFALO        CLOUDY    28  21  76 NW8       30.00F WCI  20
MAPLE LAKE     CLOUDY    29  24  80 N7        30.00S WCI  22
HUTCHINSON     CLOUDY    28  23  80 W10       30.01R WCI  19
$$
MNZ037-044-045-052-053-101800-
   East Central Minnesota

CITY           SKY/WX    TMP DP  RH WIND       PRES   REMARKS
PRINCETON      CLOUDY    28  21  74 NW7       29.99S WCI  21
MORA           CLOUDY    27  19  74 N6        30.00R WCI  20
CAMBRIDGE      CLOUDY    28  19  69 NW6       29.99R WCI  22
RUSH CITY      CLOUDY    27  19  72 NW10      30.00R WCI  17
MOOSE LAKE     CLOUDY    25  18  74 N9        29.97R WCI  15
HINCKLEY       PTSUNNY   27  18  69 N8        29.99R WCI  18
CLOQUET        CLOUDY    19  12  73 NW12G17   29.97R WCI   7
MCGREGOR       CLOUDY    25  18  74 NW9G17    29.98S WCI  15
$$
MNZ071>073-080-081-089-090-097-098-101800-
   Southwest Minnesota

CITY           SKY/WX    TMP DP  RH WIND       PRES   REMARKS
MONTEVIDEO     SUNNY     34  25  69 N13       30.05R WCI  25
GRANITE FALLS  SUNNY     32  24  71 NW16      30.06R WCI  22
CANBY          SUNNY     35  27  71 W12       30.06R WCI  27
MARSHALL       SUNNY     34  24  67 N18       30.04R WCI  23
REDWOOD FALLS  SUNNY     32  21  64 NW14      30.03R WCI  22
OLIVIA         SUNNY     30  23  74 NW16G22   30.02R WCI  19
PIPESTONE      SUNNY     34  27  75 NW13      30.03R WCI  25
WINDOM         SUNNY     34  19  55 NW17G26   30.02R WCI  23
WORTHINGTON    SUNNY     34  25  69 NW17      30.03R WCI  23
JACKSON        SUNNY     34  27  75 MISG      30.02R
TRACY          SUNNY     34  27  74 NW13      30.03R WCI  25
$$
MNZ065>067-074>077-082>085-091>093-101800-
   South Central Minnesota

CITY           SKY/WX    TMP DP  RH WIND       PRES   REMARKS
MANKATO        CLOUDY    30  23  75 NW10      30.00S WCI  21
NEW ULM        SUNNY     28  21  74 N14       30.01S WCI  17
ST JAMES       SUNNY     32  23  69 NW16      30.02F WCI  21
FAIRMONT       SUNNY     34  23  64 NW18      30.01R WCI  23
GLENCOE        CLOUDY    29  24  80 NW8       30.00S WCI  21
FARIBAULT      CLOUDY    28  23  80 NW6       29.99S WCI  22
WASECA         CLOUDY    32  27  80 NW10      30.00F WCI  24
ALBERT LEA     PTSUNNY   28  21  74 N10G17    29.99R WCI  19
$$
MNZ078>079-086>088-094>096-101800-
   Southeast Minnesota

CITY           SKY/WX    TMP DP  RH WIND       PRES   REMARKS
ROCHESTER      CLOUDY    26  22  84 NW15      29.96R WCI  14
RED WING       CLOUDY    27  18  69 N7        29.99R WCI  19
STANTON        CLOUDY    30  24  78 NW10      29.98R WCI  21
DODGE CENTER   CLOUDY    27  21  80 N9        29.96R WCI  17
WINONA           N/A     30  23  74 NW10      29.98R WCI  21
AUSTIN         CLOUDY    28  21  74 NW15G21   29.98R WCI  17
PRESTON        CLOUDY    26  20  80 NW12      29.95R WCI  15
$$
ABBREVIATIONS USED IN REMARKS
   TC - TEMPERATURES IN CELSIUS
  WCI - WIND CHILL INDEX
   HX - HEAT INDEX
  VSB - VISIBILITY
$$



USA.gov is the U.S. government's official web portal to all federal, state and local government web resources and services.